SCP
0 0 0 0 0 0 0 0 0 0 0 0 0 0 0 0 0 0 0 0 0 0 0 0 0 0 0 0 0 0 0 0 0 0 0 0 0 0 0 0 0 0 0 0
0 0 0 0 0 0 0 0 0 0 0 0 0 0 0 0 0 0 0 0 0 0 0 0 0 0 0 0 0 0 0 0 0 0 0 0 0 0 0 0 0 0 0 0
0 0 0 0 0 0 0 0 0 0 0 0 0 0 0 0 0 0 0 0 0 0 0 0 0 0 0 0 0 0 0 0 0 -0 -0 0 0 0 0 0 0 0 0 0
0 0 0 0 0 0 0 0 0 0 0 0 0 0 0 0 0 0 0 0 0 0 0 0 0 0 0 0 0 0 0 0 0 0 0 0 0 0 0 0 0 0 0 0
0 0 0 0 0 0 0 0 0 0 0 0 0 0 0 0 0 0 0 0 0 0 0 0 0 0 0 0 0 0 0 0 0 0 0 0 0 0 0 0 0 0 0 0
0 0 0 0 0 0 0 0 0 0 0 0 0 0 0 0 0 0 0 0 0 0 0 0 0 0 0 0 0 0 0 0 0 0 0 0 0 0 0 0 0 0 0 0
0 0 0 0 0 0 0 0 0 0 0 0 0 0 0 0 0 0 0 0 0 0 0 0 0 0 0 0 0 0 0 0 0 0 0 0 0 0 0 0 0 0 0 0
0 0 0 0 0 0 0 0 0 0 0 0 0 0 0 0 0 0 0 0 0 0 0 0 0 0 0 0 0 0 0 0 0 0 0 0 0 0 0 -0 0 0 0 0
0 0 0 0 0 0 0 0 0 0 0 0 0 0 0 0 0 0 0 0 0 0 0 0 0 0 0 0 0 0 0 0 0 0 0 0 -0 -0 0 -0 0 0 0 0
0 0 0 0 0 0 0 0 0 0 0 0 0 0 0 0 0 0 0 0 0 0 0 0 -0 -0 -0 0 0 0 0 0 0 0 0 0 0 -0 0 0 0 0 0 0
0 0 0 0 0 0 0 0 0 0 0 0 0 0 0 0 0 0 0 0 0 0 0 0 -0 -0 -0 0 0 0 0 0 0 0 0 0 0 0 0 0 0 0 0 0
0 0 0 0 0 0 0 0 0 0 0 0 0 0 0 0 0 0 0 0 0 0 0 0 0 -0 -0 0 0 0 0 0 0 0 0 -0 -0 0 0 0 0 0 0 0
0 0 0 0 0 0 0 0 0 0 0 0 0 0 0 0 0 0 0 0 0 0 0 0 0 0 0 0 0 0 0 0 0 0 -0 0 0 0 0 0 0 0 0 0
0 0 0 0 0 -0 -0 0 0 0 0 0 0 0 0 0 0 0 0 0 0 0 0 0 0 0 0 0 0 0 0 0 0 0 0 0 0 0 0 0 0 0 0 0
0 0 0 0 0 0 0 0 0 0 0 0 0 0 0 0 0 0 0 0 0 0 0 0 0 0 0 0 0 0 0 0 0 0 0 0 0 0 0 0 0 0 0 0
0 0 0 0 0 -0 0 0 0 0 0 0 0 0 0 0 0 0 0 0 0 0 0 0 0 0 0 0 -0 -0 0 0 0 0 0 0 0 0 0 0 0 0 0 0
0 0 0 0 -0 -0 -0 0 0 0 0 0 0 0 0 0 0 0 0 0 0 0 0 0 0 0 0 0 -0 -0 0 0 0 0 0 0 0 0 0 0 0 0 0 0
0 0 0 0 0 -0 -0 0 0 0 0 0 0 0 0 0 0 0 0 0 0 0 0 0 0 0 0 0 -0 -0 0 0 0 0 0 0 0 0 0 0 0 0 0 -0
0 0 0 0 0 0 0 0 0 0 0 0 0 0 0 0 0 0 0 0 0 0 0 -0 -0 -0 -0 0 0 0 0 0 0 0 0 0 0 0 0 0 0 0 0 -0
0 0 0 0 0 0 0 0 0 0 0 0 0 0 0 0 0 0 0 0 0 0 0 -0 -0 -0 0 0 0 0 0 0 0 0 0 0 0 0 0 -0 0 0 0 -0
0 0 0 0 0 0 0 0 0 0 0 0 0 0 0 0 0 0 0 0 0 0 0 0 -0 0 0 0 0 0 0 0 0 0 0 0 0 0 0 -0 -0 0 0 0
0 0 0 0 0 0 0 0 0 0 0 0 0 0 0 0 0 0 0 0 0 0 -0 0 0 0 0 0 0 0 0 0 0 0 0 0 0 0 0 -0 -0 0 0 0
-0 0 0 0 0 0 0 0 0 0 0 0 0 0 0 0 0 0 0 0 0 0 0 0 0 0 0 0 0 0 0 0 0 0 0 0 0 0 0 -0 -0 -0 0 0
-0 0 0 0 0 0 -0 -0 -0 0 0 0 0 0 0 0 0 0 0 0 0 0 0 0 0 0 0 0 0 0 0 0 0 0 0 0 0 0 0 0 0 0 0 0
0 0 0 0 0 -0 -0 -0 -0 0 0 0 0 0 0 0 0 0 0 0 0 0 0 0 0 0 0 0 0 0 0 0 0 0 0 0 0 0 0 0 0 0 0 0
0 0 0 0 -0 0 -0 0 0 0 0 0 0 0 0 0 0 0 0 0 0 0 0 0 0 0 0 0 0 0 0 0 0 0 0 0 0 0 0 0 0 0 0 0
0 0 0 -0 0 0 0 0 0 0 0 0 0 0 0 0 0 0 0 0 0 0 0 0 0 0 0 0 0 0 0 0 0 0 0 0 0 0 0 0 0 0 0 0
Wind_Speed
4 5 3 4 4 4 5 7 7 7 6 6 8 9 10 10 11 10 9 7 6 5 4 4 4 4 4 5 5 5 6 7 6 6 6 6 7 7 7 7 7 7 8 8
3 2 2 4 5 4 5 4 4 3 4 1 6 8 10 11 11 10 9 8 7 6 5 4 4 4 4 4 4 4 5 5 5 5 6 6 6 7 7 7 7 8 8 8
3 5 3 4 3 3 2 3 5 5 4 6 7 10 11 11 11 10 10 9 8 6 5 4 4 3 3 3 3 4 4 4 5 5 6 6 6 7 7 7 7 7 7 8
1 3 3 5 2 1 1 1 1 2 4 7 7 7 6 8 10 10 10 9 7 6 5 4 4 3 3 3 4 4 4 5 5 5 6 6 6 7 6 5 6 5 6 7
1 1 6 4 1 1 1 2 1 5 8 8 10 7 4 4 7 8 8 8 7 6 5 5 4 3 4 4 4 4 4 4 4 5 6 6 6 5 4 5 5 5 5 6
2 2 4 4 3 1 2 3 2 6 10 11 8 5 4 6 8 9 9 8 7 7 6 5 4 4 5 4 4 4 3 4 4 5 5 5 5 4 3 4 4 5 6 6
3 3 6 4 3 1 1 5 2 7 10 10 5 4 8 11 9 9 9 9 8 7 6 4 4 5 5 4 4 3 4 5 5 5 5 4 4 3 4 4 5 5 6 6
3 3 6 3 2 2 4 1 4 6 7 7 8 10 11 11 11 11 10 9 8 7 6 4 5 6 5 4 3 3 4 5 5 4 4 4 5 4 4 5 5 5 5 5
5 6 4 2 2 3 2 3 3 6 8 10 11 11 11 10 10 10 9 8 7 8 7 4 4 5 5 3 3 5 5 5 5 5 4 4 4 4 4 4 3 3 3 3
4 5 3 3 2 1 1 3 6 9 10 11 11 13 12 11 10 9 8 8 7 8 7 5 4 4 4 4 4 5 6 5 4 4 4 4 3 3 3 2 2 2 2 2
4 4 2 3 2 2 5 8 10 9 7 11 14 13 12 11 10 8 7 6 7 7 6 5 4 4 4 4 5 6 5 4 4 4 4 4 3 3 2 1 2 2 2 2
5 4 3 2 1 3 6 7 10 11 9 8 12 13 11 10 8 8 8 7 7 6 6 5 5 4 3 4 5 5 4 3 2 2 2 2 3 3 6 4 3 3 3 3
4 1 2 2 2 3 4 7 8 9 11 11 9 11 11 9 8 8 8 8 7 7 6 6 5 4 3 4 5 5 4 3 2 2 2 2 2 2 2 4 6 5 2 2
3 2 1 2 3 4 6 8 8 8 9 10 10 10 10 9 9 9 8 7 7 7 6 6 5 4 3 4 4 4 3 3 2 2 2 2 2 1 1 1 1 2 3 1
3 3 5 5 6 7 8 9 11 10 9 9 10 11 11 11 10 8 7 7 7 6 6 5 5 4 3 4 4 4 3 2 2 2 2 1 1 1 1 1 1 0 1 2
2 4 7 9 9 9 9 11 11 10 10 10 10 10 10 10 9 8 7 8 8 7 6 5 5 3 4 4 4 3 2 3 3 2 2 1 1 1 1 1 1 1 1 1
6 6 7 9 10 10 9 9 11 11 10 11 11 10 10 10 9 8 7 6 6 6 5 5 4 3 4 4 4 3 2 2 3 2 2 2 2 2 2 2 2 2 2 2
8 8 10 12 12 11 9 9 10 11 11 10 11 11 11 11 10 8 7 6 5 4 3 4 4 4 4 4 4 3 2 2 2 2 2 2 2 2 2 2 3 3 2 2
7 8 9 10 11 11 11 10 10 10 10 12 12 11 10 9 9 8 7 7 6 5 4 4 5 4 4 4 4 3 3 2 2 2 2 2 2 2 2 3 3 3 3 2
7 8 10 10 10 10 10 10 11 10 10 11 11 10 9 8 8 8 8 6 6 5 5 5 5 4 4 4 4 3 3 2 2 2 2 2 2 2 3 3 3 3 3 3
7 9 11 11 11 10 11 12 12 12 11 12 12 12 10 9 9 8 7 5 4 4 5 6 4 4 3 4 4 3 3 3 2 2 2 2 3 3 3 3 4 4 4 4
6 8 10 11 11 10 10 10 11 12 12 11 11 10 10 9 8 7 7 6 5 7 5 4 4 5 5 5 3 3 3 3 3 3 3 3 3 3 4 4 4 4 4 5
6 7 9 11 12 11 10 10 12 12 12 12 12 11 11 9 8 8 6 5 5 8 6 5 6 8 8 5 3 3 4 4 4 4 4 4 4 4 5 5 5 5 5 5
5 7 8 9 10 11 11 11 10 10 11 11 10 11 10 8 6 5 4 7 9 9 6 7 10 10 8 4 4 4 4 4 4 4 4 4 4 5 5 5 5 5 5 6
5 6 7 10 11 10 10 10 10 9 9 7 8 9 8 7 7 6 6 7 10 9 6 8 11 10 6 4 5 5 5 5 5 4 4 5 5 5 5 5 5 5 5 6
5 6 7 9 8 7 8 9 8 8 8 7 7 7 6 5 6 6 6 7 9 9 7 5 6 7 6 6 6 6 6 5 6 6 6 6 6 6 6 6 8 6 6 6
3 4 4 4 5 7 8 9 9 9 9 9 8 8 8 7 7 7 7 7 7 7 7 6 6 6 6 7 7 7 6 6 6 6 6 6 6 6 7 8 7 6 6 7
Wind_Direction
244 251 237 241 246 203 194 196 200 235 227 228 187 165 153 146 142 141 138 135 127 116 102 92 79 67 63 61 60 64 66 64 60 56 57 58 56 53 52 51 54 53 55 52
305 301 279 261 256 234 216 201 212 233 257 197 130 129 139 149 151 151 148 143 135 128 121 110 96 84 74 67 65 73 75 72 65 65 64 62 60 58 58 54 50 52 51 52
297 317 342 290 262 221 216 204 185 211 214 138 137 151 158 159 157 153 150 145 141 138 131 122 113 102 88 76 70 73 72 72 74 73 71 67 69 66 61 54 54 53 49 53
299 358 262 255 293 180 171 251 197 156 140 147 141 128 129 145 151 151 147 142 138 134 128 118 109 99 90 80 77 75 68 69 76 81 79 74 70 68 63 58 56 54 48 49
137 262 284 301 324 149 174 288 149 137 129 118 115 96 94 128 140 142 138 134 133 132 127 118 114 112 97 85 83 80 74 73 83 90 89 84 77 70 64 66 60 54 51 51
151 208 254 269 296 246 110 287 182 147 147 145 138 144 174 146 128 124 124 126 128 124 116 114 113 111 105 96 87 81 80 83 87 90 90 89 86 79 70 72 70 67 59 50
185 232 267 278 303 41 172 267 187 159 157 155 159 158 138 132 123 125 125 127 126 122 119 121 120 111 105 100 92 90 94 90 85 85 87 90 85 79 85 82 75 68 63 49
170 211 261 323 24 173 233 260 135 144 144 131 117 115 122 127 127 128 126 126 127 123 119 116 119 115 110 104 96 93 93 87 81 77 81 90 87 81 81 86 80 68 62 50
204 222 251 294 270 276 188 148 139 139 133 129 126 129 128 128 130 130 129 128 126 126 119 113 121 124 120 113 103 97 86 80 77 73 68 77 89 93 85 81 86 79 74 64
276 276 298 324 328 347 108 131 131 135 135 135 133 136 132 131 132 130 127 129 128 126 124 122 121 117 121 115 106 97 90 79 75 78 72 64 67 83 98 102 104 104 99 88
269 281 323 351 16 72 87 106 115 116 127 138 137 138 137 136 136 134 130 128 130 131 131 130 122 113 115 116 110 102 96 88 79 80 88 79 67 59 90 109 180 154 152 142
235 232 208 248 186 122 121 128 131 125 120 131 140 139 135 136 135 133 132 129 128 129 130 131 130 126 122 124 120 114 103 97 94 93 89 89 90 65 48 56 78 141 157 157
232 221 175 157 126 108 122 130 133 131 136 135 134 136 135 133 133 132 133 136 140 142 140 137 136 132 130 128 124 122 125 126 116 113 114 111 103 100 71 33 48 60 88 154
214 160 155 167 148 120 119 121 117 115 124 130 132 132 131 128 133 138 143 144 141 137 136 136 134 140 146 136 129 125 126 137 136 140 141 136 131 118 114 99 49 11 11 13
239 203 178 144 123 120 123 124 123 124 125 125 133 137 138 140 144 145 141 136 131 131 135 137 138 151 150 143 140 140 140 146 143 145 149 149 144 134 133 124 118 329 334 347
118 116 135 140 142 142 140 140 140 143 142 139 143 145 145 143 140 139 140 141 140 147 151 150 159 166 152 146 141 136 148 166 152 147 148 148 151 160 172 182 206 248 269 275
149 153 155 158 159 159 158 155 152 151 150 150 151 145 139 136 136 143 150 152 152 156 159 162 171 160 153 154 149 147 146 152 151 149 173 186 191 199 201 202 221 245 255 245
190 184 177 170 167 163 158 153 151 152 153 153 148 145 147 151 157 160 157 146 137 142 169 177 167 156 157 157 153 151 153 160 171 189 200 206 217 216 207 215 231 245 261 265
177 170 167 166 165 162 159 158 155 153 150 150 153 154 157 159 158 154 149 148 155 173 199 187 172 164 168 170 158 158 168 179 192 209 214 227 235 231 223 226 236 242 248 250
169 165 162 161 160 160 159 156 152 153 154 154 152 151 155 160 157 154 154 167 186 189 181 171 168 173 179 176 165 168 182 197 212 226 227 225 232 236 231 232 235 239 241 242
166 164 162 162 162 162 161 157 157 159 158 158 160 164 165 164 161 158 160 182 209 186 173 172 172 180 183 177 173 178 193 207 220 228 231 233 235 238 240 239 239 240 241 242
171 169 167 163 160 162 161 159 160 159 159 163 165 162 160 163 166 167 180 189 188 176 170 175 183 192 188 178 178 192 206 216 228 233 236 235 234 240 244 243 244 246 244 242
175 171 168 166 166 162 158 162 164 164 166 169 170 170 171 172 172 174 191 198 177 179 177 188 196 197 192 185 191 201 213 224 233 238 241 238 237 240 244 246 245 245 245 245
169 169 166 159 152 154 165 171 168 169 170 171 173 173 169 168 179 191 179 174 180 181 189 198 200 202 195 194 201 210 221 231 238 243 247 247 243 241 242 244 247 248 246 248
167 161 155 156 165 173 173 165 160 161 164 170 173 175 176 177 179 185 178 180 184 184 196 205 206 205 199 202 211 220 226 231 236 239 243 248 250 247 245 245 245 249 250 249
170 173 175 179 177 170 166 166 170 172 172 173 177 180 179 176 174 171 177 186 187 190 197 201 201 201 204 211 219 225 232 240 244 244 246 248 250 250 249 249 248 246 248 250
166 164 159 160 166 167 169 172 175 178 179 179 181 182 180 178 177 180 183 186 189 194 201 203 202 203 208 215 222 227 231 236 240 243 246 247 247 247 249 248 248 247 247 249